Time,TemperatureF,DewpointF,PressureIn,WindDirection,WindDirectionDegrees,WindSpeedMPH,WindSpeedGustMPH,Humidity,HourlyPrecipIn,Conditions,Clouds,dailyrainin,SoftwareType,DateUTC
2013-03-29 00:10:00,37.6,25.0,30.28,NW,304,0.0,-999.0,61,-99.99,,,0.00,weatherlink.com 1.10,2013-03-29 04:10:00,
2013-03-29 00:25:00,36.7,25.0,30.28,NW,305,0.0,-999.0,63,-99.99,,,0.00,weatherlink.com 1.10,2013-03-29 04:25:00,
2013-03-29 00:40:00,35.7,25.0,30.29,WSW,253,0.0,-999.0,65,-99.99,,,0.00,weatherlink.com 1.10,2013-03-29 04:40:00,
2013-03-29 00:55:00,34.8,24.0,30.29,WSW,253,0.0,-999.0,66,-99.99,,,0.00,weatherlink.com 1.10,2013-03-29 04:55:00,
2013-03-29 01:10:00,33.8,24.0,30.28,WSW,253,0.0,-999.0,67,-99.99,,,0.00,weatherlink.com 1.10,2013-03-29 05:10:00,
2013-03-29 01:25:00,34.0,24.0,30.28,WSW,253,0.0,-999.0,68,-99.99,,,0.00,weatherlink.com 1.10,2013-03-29 05:25:00,
2013-03-29 01:39:00,33.5,24.0,30.28,WSW,253,0.0,-999.0,67,-99.99,,,0.00,weatherlink.com 1.10,2013-03-29 05:39:00,
2013-03-29 01:54:00,32.6,24.0,30.29,WSW,253,0.0,-999.0,71,-99.99,,,0.00,weatherlink.com 1.10,2013-03-29 05:54:00,
2013-03-29 02:09:00,31.4,24.0,30.29,WSW,253,0.0,-999.0,75,-99.99,,,0.00,weatherlink.com 1.10,2013-03-29 06:09:00,
2013-03-29 02:25:00,29.7,23.0,30.29,WSW,253,0.0,-999.0,76,-99.99,,,0.00,weatherlink.com 1.10,2013-03-29 06:25:00,
2013-03-29 02:40:00,28.5,22.0,30.29,WSW,253,0.0,-999.0,78,-99.99,,,0.00,weatherlink.com 1.10,2013-03-29 06:40:00,
2013-03-29 02:55:00,28.4,23.0,30.29,WSW,253,0.0,-999.0,81,-99.99,,,0.00,weatherlink.com 1.10,2013-03-29 06:55:00,
2013-03-29 03:10:00,28.4,24.0,30.29,WSW,253,0.0,-999.0,83,-99.99,,,0.00,weatherlink.com 1.10,2013-03-29 07:10:00,
2013-03-29 03:25:00,28.0,24.0,30.29,WSW,253,0.0,-999.0,84,-99.99,,,0.00,weatherlink.com 1.10,2013-03-29 07:25:00,
2013-03-29 03:40:00,27.8,24.0,30.29,WSW,254,0.0,-999.0,84,-99.99,,,0.00,weatherlink.com 1.10,2013-03-29 07:40:00,
2013-03-29 03:55:00,27.3,23.0,30.29,WSW,253,0.0,-999.0,84,-99.99,,,0.00,weatherlink.com 1.10,2013-03-29 07:55:00,
2013-03-29 04:10:00,27.0,23.0,30.29,WSW,253,0.0,-999.0,86,-99.99,,,0.00,weatherlink.com 1.10,2013-03-29 08:10:00,
2013-03-29 04:25:00,26.9,23.0,30.29,WSW,253,0.0,-999.0,86,-99.99,,,0.00,weatherlink.com 1.10,2013-03-29 08:25:00,
2013-03-29 04:40:00,26.1,22.0,30.29,WSW,253,0.0,-999.0,85,-99.99,,,0.00,weatherlink.com 1.10,2013-03-29 08:40:00,
2013-03-29 04:55:00,25.6,22.0,30.29,WSW,253,0.0,-999.0,85,-99.99,,,0.00,weatherlink.com 1.10,2013-03-29 08:55:00,
2013-03-29 05:10:00,25.9,23.0,30.29,WSW,253,0.0,-999.0,87,-99.99,,,0.00,weatherlink.com 1.10,2013-03-29 09:10:00,
2013-03-29 05:25:00,25.7,22.0,30.29,WSW,253,0.0,-999.0,87,-99.99,,,0.00,weatherlink.com 1.10,2013-03-29 09:25:00,
2013-03-29 05:40:00,25.3,22.0,30.29,WSW,254,0.0,-999.0,87,-99.99,,,0.00,weatherlink.com 1.10,2013-03-29 09:40:00,
2013-03-29 05:55:00,24.8,22.0,30.29,WSW,253,0.0,-999.0,87,-99.99,,,0.00,weatherlink.com 1.10,2013-03-29 09:55:00,
2013-03-29 06:10:00,24.5,22.0,30.29,WSW,253,0.0,-999.0,88,-99.99,,,0.00,weatherlink.com 1.10,2013-03-29 10:10:00,
2013-03-29 06:25:00,24.6,22.0,30.28,WSW,253,0.0,-999.0,88,-99.99,,,0.00,weatherlink.com 1.10,2013-03-29 10:25:00,
2013-03-29 06:40:00,24.4,21.0,30.28,WSW,253,0.0,-999.0,88,-99.99,,,0.00,weatherlink.com 1.10,2013-03-29 10:40:00,
2013-03-29 06:55:00,24.8,22.0,30.28,WSW,253,0.0,-999.0,87,-99.99,,,0.00,weatherlink.com 1.10,2013-03-29 10:55:00,
2013-03-29 07:10:00,23.9,20.0,30.28,WSW,253,0.0,-999.0,86,-99.99,,,0.00,weatherlink.com 1.10,2013-03-29 11:10:00,
2013-03-29 07:25:00,-999.0,-99.9,30.28,North,-999,-999.0,-999.0,-999,-99.99,,,0.00,weatherlink.com 1.10,2013-03-29 11:25:00,
2013-03-29 07:40:00,-999.0,-99.9,30.29,North,-999,-999.0,-999.0,-999,-99.99,,,0.00,weatherlink.com 1.10,2013-03-29 11:40:00,
2013-03-29 07:55:00,-999.0,-99.9,30.29,North,-999,-999.0,-999.0,-999,-99.99,,,0.00,weatherlink.com 1.10,2013-03-29 11:55:00,
2013-03-29 08:10:00,-999.0,-99.9,30.29,North,-999,-999.0,-999.0,-999,-99.99,,,0.00,weatherlink.com 1.10,2013-03-29 12:10:00,
2013-03-29 08:25:00,28.9,24.0,30.29,WSW,253,0.0,-999.0,81,-99.99,,,0.00,weatherlink.com 1.10,2013-03-29 12:25:00,
2013-03-29 08:40:00,30.4,25.0,30.30,WSW,253,0.0,-999.0,79,-99.99,,,0.00,weatherlink.com 1.10,2013-03-29 12:40:00,
2013-03-29 08:55:00,33.2,26.0,30.30,WSW,254,0.0,-999.0,74,-99.99,,,0.00,weatherlink.com 1.10,2013-03-29 12:55:00,
2013-03-29 09:10:00,35.1,25.0,30.30,NNW,334,0.0,-999.0,68,-99.99,,,0.00,weatherlink.com 1.10,2013-03-29 13:10:00,
2013-03-29 09:25:00,36.7,25.0,30.30,NNE,19,0.0,-999.0,62,-99.99,,,0.00,weatherlink.com 1.10,2013-03-29 13:25:00,
2013-03-29 09:40:00,37.9,24.0,30.30,NE,51,3.0,-999.0,57,-99.99,,,0.00,weatherlink.com 1.10,2013-03-29 13:40:00,
2013-03-29 09:55:00,38.8,24.0,30.30,NE,37,3.0,-999.0,55,-99.99,,,0.00,weatherlink.com 1.10,2013-03-29 13:55:00,
2013-03-29 10:10:00,39.3,24.0,30.30,North,356,2.0,-999.0,54,-99.99,,,0.00,weatherlink.com 1.10,2013-03-29 14:10:00,
2013-03-29 10:25:00,40.7,24.0,30.29,NE,45,3.0,-999.0,52,-99.99,,,0.00,weatherlink.com 1.10,2013-03-29 14:25:00,
2013-03-29 10:40:00,41.6,24.0,30.30,NNW,329,0.0,-999.0,49,-99.99,,,0.00,weatherlink.com 1.10,2013-03-29 14:40:00,
2013-03-29 10:55:00,42.2,23.0,30.30,WNW,285,1.0,-999.0,47,-99.99,,,0.00,weatherlink.com 1.10,2013-03-29 14:55:00,
2013-03-29 11:10:00,42.0,22.0,30.30,NNW,340,5.0,-999.0,46,-99.99,,,0.00,weatherlink.com 1.10,2013-03-29 15:10:00,
2013-03-29 11:25:00,43.1,23.0,30.30,NW,314,1.0,-999.0,45,-99.99,,,0.00,weatherlink.com 1.10,2013-03-29 15:25:00,
2013-03-29 11:40:00,43.3,23.0,30.30,NNW,335,2.0,-999.0,44,-99.99,,,0.00,weatherlink.com 1.10,2013-03-29 15:40:00,
2013-03-29 11:55:00,43.8,23.0,30.30,NW,316,1.0,-999.0,44,-99.99,,,0.00,weatherlink.com 1.10,2013-03-29 15:55:00,
2013-03-29 12:10:00,45.4,24.0,30.29,NNE,32,1.0,-999.0,43,-99.99,,,0.00,weatherlink.com 1.10,2013-03-29 16:10:00,
2013-03-29 12:25:00,46.0,23.0,30.29,NNE,25,2.0,-999.0,41,-99.99,,,0.00,weatherlink.com 1.10,2013-03-29 16:25:00,
2013-03-29 12:40:00,46.5,22.0,30.29,NW,314,4.0,-999.0,38,-99.99,,,0.00,weatherlink.com 1.10,2013-03-29 16:40:00,
2013-03-29 12:55:00,46.5,21.0,30.28,West,266,4.0,-999.0,37,-99.99,,,0.00,weatherlink.com 1.10,2013-03-29 16:55:00,
2013-03-29 13:10:00,46.4,22.0,30.27,WNW,287,1.0,-999.0,38,-99.99,,,0.00,weatherlink.com 1.10,2013-03-29 17:10:00,
2013-03-29 13:25:00,46.8,21.0,30.27,WNW,297,3.0,-999.0,36,-99.99,,,0.00,weatherlink.com 1.10,2013-03-29 17:25:00,
2013-03-29 13:40:00,48.5,21.0,30.27,West,268,3.0,-999.0,34,-99.99,,,0.00,weatherlink.com 1.10,2013-03-29 17:40:00,
2013-03-29 13:55:00,48.7,22.0,30.26,NNW,347,1.0,-999.0,35,-99.99,,,0.00,weatherlink.com 1.10,2013-03-29 17:55:00,
2013-03-29 14:10:00,48.8,22.0,30.26,NW,325,6.0,-999.0,35,-99.99,,,0.00,weatherlink.com 1.10,2013-03-29 18:10:00,
2013-03-29 14:25:00,49.4,23.0,30.25,North,350,3.0,-999.0,35,-99.99,,,0.00,weatherlink.com 1.10,2013-03-29 18:25:00,
2013-03-29 14:40:00,49.6,21.0,30.24,ENE,74,1.0,-999.0,33,-99.99,,,0.00,weatherlink.com 1.10,2013-03-29 18:40:00,
2013-03-29 14:55:00,49.7,21.0,30.24,SW,217,1.0,-999.0,33,-99.99,,,0.00,weatherlink.com 1.10,2013-03-29 18:55:00,
2013-03-29 15:10:00,50.8,22.0,30.23,NNE,19,1.0,-999.0,32,-99.99,,,0.00,weatherlink.com 1.10,2013-03-29 19:10:00,
2013-03-29 15:25:00,50.4,23.0,30.23,NW,321,2.0,-999.0,34,-99.99,,,0.00,weatherlink.com 1.10,2013-03-29 19:25:00,
2013-03-29 15:40:00,51.5,24.0,30.22,NW,312,1.0,-999.0,34,-99.99,,,0.00,weatherlink.com 1.10,2013-03-29 19:40:00,
2013-03-29 15:55:00,51.1,20.0,30.22,West,271,3.0,-999.0,30,-99.99,,,0.00,weatherlink.com 1.10,2013-03-29 19:55:00,
2013-03-29 16:10:00,51.5,22.0,30.21,ENE,67,1.0,-999.0,31,-99.99,,,0.00,weatherlink.com 1.10,2013-03-29 20:10:00,
2013-03-29 16:25:00,51.7,22.0,30.21,NE,37,5.0,-999.0,31,-99.99,,,0.00,weatherlink.com 1.10,2013-03-29 20:25:00,
2013-03-29 16:40:00,52.2,22.0,30.21,West,264,2.0,-999.0,31,-99.99,,,0.00,weatherlink.com 1.10,2013-03-29 20:40:00,
2013-03-29 16:55:00,52.8,21.0,30.20,NE,54,4.0,-999.0,29,-99.99,,,0.00,weatherlink.com 1.10,2013-03-29 20:55:00,
2013-03-29 17:10:00,52.3,22.0,30.20,NW,310,1.0,-999.0,30,-99.99,,,0.00,weatherlink.com 1.10,2013-03-29 21:10:00,
2013-03-29 17:25:00,52.5,21.0,30.20,NNW,331,2.0,-999.0,29,-99.99,,,0.00,weatherlink.com 1.10,2013-03-29 21:25:00,
2013-03-29 17:40:00,52.7,21.0,30.20,NE,46,2.0,-999.0,29,-99.99,,,0.00,weatherlink.com 1.10,2013-03-29 21:40:00,
2013-03-29 17:55:00,52.6,22.0,30.20,NW,325,2.0,-999.0,30,-99.99,,,0.00,weatherlink.com 1.10,2013-03-29 21:55:00,
2013-03-29 18:10:00,52.8,21.0,30.20,WNW,285,1.0,-999.0,29,-99.99,,,0.00,weatherlink.com 1.10,2013-03-29 22:10:00,
2013-03-29 18:25:00,52.3,21.0,30.20,West,269,4.0,-999.0,29,-99.99,,,0.00,weatherlink.com 1.10,2013-03-29 22:25:00,
2013-03-29 18:40:00,51.8,22.0,30.20,North,5,1.0,-999.0,31,-99.99,,,0.00,weatherlink.com 1.10,2013-03-29 22:40:00,
2013-03-29 18:55:00,51.7,21.0,30.20,NNW,337,1.0,-999.0,30,-99.99,,,0.00,weatherlink.com 1.10,2013-03-29 22:55:00,
2013-03-29 19:10:00,50.6,21.0,30.20,WNW,294,1.0,-999.0,31,-99.99,,,0.00,weatherlink.com 1.10,2013-03-29 23:10:00,
2013-03-29 19:25:00,50.0,22.0,30.20,West,279,0.0,-999.0,34,-99.99,,,0.00,weatherlink.com 1.10,2013-03-29 23:25:00,
2013-03-29 19:40:00,49.3,21.0,30.20,North,349,0.0,-999.0,33,-99.99,,,0.00,weatherlink.com 1.10,2013-03-29 23:40:00,
2013-03-29 19:55:00,48.4,21.0,30.20,NNW,347,0.0,-999.0,34,-99.99,,,0.00,weatherlink.com 1.10,2013-03-29 23:55:00,
2013-03-29 20:10:00,47.6,21.0,30.20,NNW,336,0.0,-999.0,35,-99.99,,,0.00,weatherlink.com 1.10,2013-03-30 00:10:00,
2013-03-29 20:25:00,45.6,22.0,30.20,NNW,335,0.0,-999.0,40,-99.99,,,0.00,weatherlink.com 1.10,2013-03-30 00:25:00,
2013-03-29 20:40:00,43.9,22.0,30.21,NNW,335,0.0,-999.0,42,-99.99,,,0.00,weatherlink.com 1.10,2013-03-30 00:40:00,
2013-03-29 20:55:00,42.2,20.0,30.21,NNW,335,0.0,-999.0,42,-99.99,,,0.00,weatherlink.com 1.10,2013-03-30 00:55:00,
2013-03-29 21:10:00,40.4,21.0,30.21,NNW,336,0.0,-999.0,46,-99.99,,,0.00,weatherlink.com 1.10,2013-03-30 01:10:00,
2013-03-29 21:25:00,39.5,21.0,30.21,NNW,335,0.0,-999.0,48,-99.99,,,0.00,weatherlink.com 1.10,2013-03-30 01:25:00,
2013-03-29 21:40:00,38.7,21.0,30.22,NNW,335,0.0,-999.0,50,-99.99,,,0.00,weatherlink.com 1.10,2013-03-30 01:40:00,
2013-03-29 21:55:00,37.8,22.0,30.22,NNW,336,0.0,-999.0,54,-99.99,,,0.00,weatherlink.com 1.10,2013-03-30 01:55:00,
2013-03-29 22:10:00,37.1,23.0,30.22,NNW,335,0.0,-999.0,56,-99.99,,,0.00,weatherlink.com 1.10,2013-03-30 02:10:00,
2013-03-29 22:25:00,36.2,23.0,30.23,NNW,335,0.0,-999.0,60,-99.99,,,0.00,weatherlink.com 1.10,2013-03-30 02:25:00,
2013-03-29 22:40:00,34.9,23.0,30.22,NNW,336,0.0,-999.0,61,-99.99,,,0.00,weatherlink.com 1.10,2013-03-30 02:40:00,
2013-03-29 22:55:00,34.9,24.0,30.22,NNW,335,0.0,-999.0,65,-99.99,,,0.00,weatherlink.com 1.10,2013-03-30 02:55:00,
2013-03-29 23:10:00,34.4,23.0,30.22,NNW,335,0.0,-999.0,63,-99.99,,,0.00,weatherlink.com 1.10,2013-03-30 03:10:00,
2013-03-29 23:25:00,32.9,24.0,30.23,NW,318,0.0,-999.0,71,-99.99,,,0.00,weatherlink.com 1.10,2013-03-30 03:25:00,
2013-03-29 23:40:00,33.3,24.0,30.23,NW,318,0.0,-999.0,68,-99.99,,,0.00,weatherlink.com 1.10,2013-03-30 03:40:00,
2013-03-29 23:55:00,33.6,23.0,30.23,NW,318,0.0,-999.0,66,-99.99,,,0.00,weatherlink.com 1.10,2013-03-30 03:55:00,